This is the latest recevied weather packets stored in our database for station/object F4GQK-13. If no packets are shown the sender has not sent any weather packets the latest 1 day(s).
| Time | Temp. | Humidity | Pressure | Rain* | Wind** | Luminosity | Snow |
|---|---|---|---|---|---|---|---|
| 1778019304 | 11.67° C | 99% | 1008.3 hPa | 12.7 mm | 0.89 m/s, 324° | 0 W/m² | - |
| 1778019005 | 11.67° C | 99% | 1008.3 hPa | 12.7 mm | 1.34 m/s, 303° | 0 W/m² | - |
| 1778018705 | 11.67° C | 99% | 1008.4 hPa | 12.7 mm | 0.45 m/s, 306° | 0 W/m² | - |
| 1778018405 | 11.67° C | 99% | 1008.4 hPa | 0 mm | 0.89 m/s, 352° | 0 W/m² | - |
| 1778018105 | 11.67° C | 99% | 1008.2 hPa | 0 mm | 0.45 m/s, 298° | 0 W/m² | - |
| 1778017805 | 11.67° C | 99% | 1008.2 hPa | 0.25 mm | 0.89 m/s, 302° | 0 W/m² | - |
| 1778017504 | 11.67° C | 99% | 1008.1 hPa | 0.25 mm | 0.89 m/s, 302° | 0 W/m² | - |
| 1778017205 | 11.67° C | 99% | 1008.3 hPa | 0.25 mm | 0.89 m/s, 315° | 0 W/m² | - |
| 1778016905 | 11.67° C | 99% | 1008.2 hPa | 0.25 mm | 1.34 m/s, 0° | 0 W/m² | - |
| 1778016605 | 11.67° C | 99% | 1008.3 hPa | 0.25 mm | 0.45 m/s, 333° | 0 W/m² | - |
| 1778016302 | 11.67° C | 99% | 1008.1 hPa | 0.25 mm | 0.45 m/s, 302° | 0 W/m² | - |
| 1778016004 | 11.67° C | 99% | 1008.3 hPa | 0.25 mm | 0.45 m/s, 333° | 0 W/m² | - |
| 1778015704 | 11.67° C | 99% | 1008.4 hPa | 0.51 mm | 1.34 m/s, 347° | 0 W/m² | - |
| 1778015405 | 11.67° C | 99% | 1008.5 hPa | 0.51 mm | 0.89 m/s, 312° | 0 W/m² | - |
| 1778015105 | 11.67° C | 99% | 1008.3 hPa | 0.51 mm | 0.45 m/s, 341° | 0 W/m² | - |
| 1778014806 | 11.67° C | 99% | 1008.4 hPa | 0.51 mm | 1.79 m/s, 328° | 0 W/m² | - |
| 1778014505 | 11.67° C | 99% | 1008.4 hPa | 0.51 mm | 0.89 m/s, 300° | 0 W/m² | - |
| 1778014205 | 11.67° C | 99% | 1008.4 hPa | 0.25 mm | 1.79 m/s, 328° | 0 W/m² | - |
| 1778013905 | 11.67° C | 99% | 1008.4 hPa | 0.51 mm | 0 m/s | 0 W/m² | - |
| 1778013605 | 11.67° C | 99% | 1008.4 hPa | 0.51 mm | 0.89 m/s, 320° | 0 W/m² | - |
| 1778013305 | 11.67° C | 99% | 1008.4 hPa | 0.76 mm | 0.89 m/s, 320° | 0 W/m² | - |
| 1778013006 | 11.67° C | 99% | 1008.4 hPa | 0.76 mm | 1.34 m/s, 350° | 0 W/m² | - |
| 1778012404 | 11.67° C | 99% | 1008.2 hPa | 1.02 mm | 1.34 m/s, 332° | 0 W/m² | - |
| 1778012105 | 11.67° C | 99% | 1008.4 hPa | 0.76 mm | 1.34 m/s, 328° | 0 W/m² | - |
| 1778011804 | 11.67° C | 99% | 1008.1 hPa | 0.76 mm | 0.89 m/s, 15° | 0 W/m² | - |
* Rain latest hour (hover to see other rain measurements)
** Current wind speed in m/s (hover to see current wind gust speed)